Weather History for KHTL - November, 2012

Change the Weather History Date:

Friday, November 23, 2012

  Actual Average Record
Temperature  
Mean Temperature 41 °F 32 °F  
Max Temperature 53 °F 39 °F 64 °F (1931)
Min Temperature 28 °F 25 °F -2 °F (1989)
Degree Days  
Heating Degree Days 24 33  
Month to date heating degree days 617 663  
Since 1 July heating degree days 1458 1641  
Moisture  
Dew Point 27 °F    
Average Humidity 82    
Maximum Humidity 92    
Minimum Humidity 71    
Precipitation  
Precipitation 0.13 in 0.08 in 0.70 in (1963)
Month to date precipitation 0.36 1.81  
Year to date precipitation 30.09 26.59  
Snow  
Snow 1.30 in 0.40 in 11.10 in (1970)
Month to date snowfall 1.5 5.6  
Since 1 July snowfall 1.5 6.2  
Snow Depth 1.00 in    
Sea Level Pressure  
Sea Level Pressure 29.76 in    
Wind  
Wind Speed 19 mph (WNW)    
Max Wind Speed 28 mph    
Max Gust Speed 41 mph    
Visibility 4 miles    
Events Fog , Snow    
T = Trace of Precipitation, MM = Missing Value Source: NWS Daily Summary

Daily Weather History Graph

Daily Weather History Graph

Search for Another Location

Airport or City:

Trip Planner

Search our weather history database for the weather conditions in past years. The results will help you decide how hot, cold, wet, or windy it might be!

Date:

Astronomy

Nov. 23, 2012 Rise Set
Actual Time 7:45 AM EST 5:04 PM EST
Civil Twilight 7:13 AM EST 5:36 PM EST
Nautical Twilight 6:37 AM EST 6:12 PM EST
Astronomical Twilight 6:03 AM EST 6:47 PM EST
Moon 2:26 PM EST (11/23) 2:54 AM EST (11/23)
Length of Visible Light 10h 23m
Length of Day
9h 18m
Waxing Gibbous, 79% of the Moon is Illuminated
Nov 23
Waxing Gibbous
Nov 28
Full
Dec 6
Last Quarter
Dec 13
New
Dec 20
First Quarter

Hourly Weather History & Observations

Time (EST) Temp. Windchill Dew Point Humidity Pressure Visibility Wind Dir Wind Speed Gust Speed Precip Events Conditions
12:53 AM 53.1 °F - 46.0 °F 77% 29.62 in 9.0 mi SSW 13.8 mph 20.7 mph N/A   Overcast
1:53 AM 52.0 °F - 45.0 °F 77% 29.58 in 10.0 mi SSW 10.4 mph 19.6 mph N/A   Overcast
2:53 AM 52.0 °F - 45.0 °F 77% 29.57 in 9.0 mi SW 16.1 mph 24.2 mph N/A   Overcast
3:53 AM 48.0 °F - 39.9 °F 74% 29.58 in 10.0 mi WSW 17.3 mph 33.4 mph N/A   Overcast
4:53 AM 42.1 °F 32.6 °F 35.1 °F 76% 29.62 in 10.0 mi West 23.0 mph 32.2 mph N/A   Overcast
5:53 AM 37.9 °F 27.3 °F 30.0 °F 73% 29.65 in 10.0 mi West 21.9 mph 29.9 mph N/A   Overcast
6:53 AM 36.0 °F 24.4 °F 28.0 °F 73% 29.65 in 10.0 mi West 23.0 mph 33.4 mph N/A   Overcast
7:53 AM 36.0 °F 25.0 °F 28.0 °F 73% 29.65 in 10.0 mi West 20.7 mph 33.4 mph N/A   Overcast
8:53 AM 34.0 °F 22.4 °F 26.1 °F 73% 29.67 in 10.0 mi WSW 20.7 mph 31.1 mph N/A   Overcast
9:53 AM 32.0 °F 19.8 °F 24.1 °F 73% 29.68 in 10.0 mi West 20.7 mph 35.7 mph N/A   Overcast
10:53 AM 30.9 °F 18.1 °F 23.0 °F 72% 29.69 in 10.0 mi West 21.9 mph 35.7 mph N/A   Overcast
11:53 AM 32.0 °F 20.8 °F 24.1 °F 73% 29.68 in 9.0 mi West 17.3 mph 31.1 mph 0.00 in Snow Light Snow
12:53 PM 33.1 °F 21.5 °F 25.0 °F 72% 29.68 in 10.0 mi West 19.6 mph 29.9 mph 0.00 in   Overcast
1:37 PM 33.8 °F 21.6 °F 24.8 °F 70% 29.66 in 9.0 mi WNW 23.0 mph 35.7 mph 0.00 in   Overcast
1:46 PM 32.0 °F 20.5 °F 26.6 °F 80% 29.67 in 3.0 mi West 18.4 mph 31.1 mph 0.00 in Snow Light Snow
1:49 PM 32.0 °F 20.5 °F 26.6 °F 80% 29.67 in 1.5 mi West 18.4 mph 31.1 mph 0.00 in Snow Light Snow
1:53 PM 30.9 °F 19.1 °F 26.1 °F 82% 29.69 in 1.0 mi West 18.4 mph 27.6 mph 0.00 in Snow Light Snow
1:59 PM 32.0 °F 19.2 °F 26.6 °F 80% 29.67 in 1.8 mi WNW 23.0 mph 34.5 mph 0.00 in Snow Light Snow
2:06 PM 33.8 °F 21.9 °F 24.8 °F 70% 29.67 in 9.0 mi West 21.9 mph 33.4 mph 0.00 in   Overcast
2:44 PM 30.2 °F 16.8 °F 24.8 °F 80% 29.68 in 2.5 mi West 23.0 mph 34.5 mph 0.00 in Snow Light Snow
2:47 PM 30.2 °F 15.9 °F 24.8 °F 80% 29.68 in 1.5 mi West 26.5 mph 34.5 mph 0.00 in Snow Light Snow
2:53 PM 30.9 °F 18.4 °F 26.1 °F 82% 29.71 in 1.5 mi West 20.7 mph 33.4 mph 0.00 in Snow Light Snow
2:55 PM 30.2 °F 17.8 °F 26.6 °F 86% 29.69 in 2.0 mi WNW 19.6 mph 33.4 mph 0.00 in Snow Light Snow
3:04 PM 30.2 °F 17.4 °F 24.8 °F 80% 29.69 in 0.8 mi West 20.7 mph 29.9 mph 0.00 in Snow Light Snow
3:11 PM 30.2 °F 17.1 °F 26.6 °F 86% 29.70 in 0.2 mi West 21.9 mph 29.9 mph 0.00 in Fog , Snow Snow
3:22 PM 30.2 °F 18.1 °F 28.4 °F 93% 29.70 in 1.2 mi West 18.4 mph 26.5 mph 0.01 in Snow Light Snow
3:27 PM 30.2 °F 17.8 °F 26.6 °F 86% 29.70 in 2.0 mi West 19.6 mph 27.6 mph 0.01 in Snow Light Snow
3:32 PM 30.2 °F 16.5 °F 26.6 °F 86% 29.70 in 1.8 mi West 24.2 mph 35.7 mph 0.01 in Snow Light Snow
3:35 PM 30.2 °F 16.5 °F 26.6 °F 86% 29.71 in 2.0 mi WNW 24.2 mph 35.7 mph 0.01 in Snow Light Snow
3:53 PM 30.9 °F 17.5 °F 26.1 °F 82% 29.75 in 3.0 mi West 24.2 mph 34.5 mph 0.01 in Snow Light Snow
4:06 PM 30.2 °F 16.5 °F 26.6 °F 86% 29.72 in 2.0 mi West 24.2 mph 36.8 mph 0.00 in Snow Light Snow
4:09 PM 30.2 °F 15.9 °F 26.6 °F 86% 29.72 in 1.5 mi West 26.5 mph 36.8 mph 0.00 in Snow Light Snow
4:14 PM 30.2 °F 15.9 °F 26.6 °F 86% 29.73 in 0.8 mi WNW 26.5 mph 41.4 mph 0.00 in Snow Light Snow
4:45 PM 28.4 °F 15.1 °F 26.6 °F 93% 29.75 in 0.5 mi WNW 20.7 mph 34.5 mph 0.00 in Fog , Snow Snow
4:53 PM 28.9 °F 15.4 °F 26.1 °F 89% 29.79 in 0.5 mi WNW 21.9 mph 32.2 mph 0.00 in Fog , Snow Snow
5:17 PM 30.2 °F 17.4 °F 26.6 °F 86% 29.77 in 1.0 mi WNW 20.7 mph 32.2 mph 0.00 in Snow Light Snow
5:24 PM 30.2 °F 16.8 °F 24.8 °F 80% 29.77 in 1.8 mi WNW 23.0 mph 32.2 mph 0.00 in Snow Light Snow
5:33 PM 30.2 °F 17.8 °F 24.8 °F 80% 29.78 in 3.0 mi WNW 19.6 mph 31.1 mph 0.00 in Snow Light Snow
5:41 PM 30.2 °F 16.2 °F 24.8 °F 80% 29.78 in 1.8 mi WNW 25.3 mph 33.4 mph 0.00 in Snow Light Snow
5:48 PM 28.4 °F 14.1 °F 24.8 °F 86% 29.79 in 1.0 mi WNW 24.2 mph 38.0 mph 0.00 in Snow Light Snow
5:53 PM 28.9 °F 17.3 °F 26.1 °F 89% 29.83 in 1.0 mi WNW 16.1 mph 38.0 mph 0.00 in Snow Light Snow
6:04 PM 28.4 °F 14.4 °F 24.8 °F 86% 29.80 in 1.5 mi WNW 23.0 mph 35.7 mph 0.00 in Snow Light Snow
6:16 PM 28.4 °F 14.1 °F 24.8 °F 86% 29.80 in 2.0 mi WNW 24.2 mph 35.7 mph 0.01 in Snow Light Snow
6:33 PM 28.4 °F 14.4 °F 23.0 °F 80% 29.81 in 3.0 mi WNW 23.0 mph 34.5 mph 0.01 in Snow Light Snow
6:42 PM 28.4 °F 16.6 °F 23.0 °F 80% 29.82 in 2.5 mi NW 16.1 mph 31.1 mph 0.01 in Snow Light Snow
6:53 PM 28.9 °F 16.5 °F 24.1 °F 82% 29.86 in 1.8 mi WNW 18.4 mph 28.8 mph 0.01 in Snow Light Snow
6:59 PM 30.2 °F 18.1 °F 24.8 °F 80% 29.83 in 3.0 mi WNW 18.4 mph 31.1 mph 0.00 in Snow Light Snow
7:14 PM 28.4 °F 15.8 °F 24.8 °F 86% 29.84 in 2.5 mi WNW 18.4 mph 29.9 mph 0.00 in Snow Light Snow
7:36 PM 28.4 °F 15.1 °F 24.8 °F 86% 29.85 in 1.5 mi NW 20.7 mph 32.2 mph 0.00 in Snow Light Snow
7:53 PM 28.9 °F 15.8 °F 24.1 °F 82% 29.89 in 1.5 mi WNW 20.7 mph 31.1 mph 0.00 in Snow Light Snow
8:06 PM 28.4 °F 17.0 °F 24.8 °F 86% 29.85 in 1.8 mi NW 15.0 mph 26.5 mph 0.00 in Snow Light Snow
8:11 PM 28.4 °F 14.7 °F 24.8 °F 86% 29.86 in 3.0 mi NW 21.9 mph 32.2 mph 0.00 in Snow Light Snow
8:53 PM 28.9 °F 16.1 °F 23.0 °F 78% 29.92 in 2.5 mi WNW 19.6 mph 34.5 mph 0.00 in Snow Light Snow
9:16 PM 28.4 °F 16.6 °F 24.8 °F 86% 29.88 in 1.5 mi WNW 16.1 mph 31.1 mph 0.00 in Snow Light Snow
9:36 PM 28.4 °F 17.0 °F 24.8 °F 86% 29.89 in 2.0 mi NW 15.0 mph 25.3 mph 0.00 in Snow Light Snow
9:45 PM 28.4 °F 14.4 °F 24.8 °F 86% 29.89 in 1.5 mi WNW 23.0 mph 31.1 mph 0.00 in Snow Light Snow
9:53 PM 28.9 °F 17.3 °F 24.1 °F 82% 29.94 in 2.5 mi WNW 16.1 mph 31.1 mph 0.00 in Snow Light Snow
10:03 PM 28.4 °F 17.0 °F 24.8 °F 86% 29.90 in 1.5 mi WNW 15.0 mph 24.2 mph 0.00 in Snow Light Snow
10:27 PM 28.4 °F 16.6 °F 24.8 °F 86% 29.91 in 1.8 mi WNW 16.1 mph 26.5 mph 0.00 in Snow Light Snow
10:34 PM 28.4 °F 16.2 °F 24.8 °F 86% 29.91 in 1.2 mi WNW 17.3 mph 25.3 mph 0.00 in Snow Light Snow
10:42 PM 28.4 °F 15.8 °F 24.8 °F 86% 29.91 in 1.0 mi WNW 18.4 mph 26.5 mph 0.00 in Snow Light Snow
10:49 PM 28.4 °F 16.6 °F 24.8 °F 86% 29.91 in 1.5 mi WNW 16.1 mph 26.5 mph 0.01 in Snow Light Snow
10:53 PM 28.0 °F 17.5 °F 25.0 °F 88% 29.96 in 1.8 mi WNW 12.7 mph 21.9 mph 0.01 in Snow Light Snow
11:06 PM 28.4 °F 17.5 °F 24.8 °F 86% 29.91 in 1.2 mi WNW 13.8 mph 21.9 mph 0.00 in Snow Light Snow
11:23 PM 28.4 °F 15.8 °F 24.8 °F 86% 29.91 in 2.0 mi NW 18.4 mph 25.3 mph 0.00 in Snow Light Snow
11:53 PM 28.0 °F 16.1 °F 23.0 °F 81% 29.97 in 3.0 mi NW 16.1 mph 28.8 mph 0.00 in Snow Light Snow